[[{"header":{"parameterUnit":"m.s-1","parameterCategory":2,"la1":30.2991,"la2":30.254,"lo1":-89.0895,"lo2":-89.0444,"dy":0.0017,"dx":0.0017,"nx":28,"ny":28,"refTime":"2025-03-20T21:00:00:Z","depth":"0","parameterNumber":2,"parameterNumberName":"U-component_of_CURRENTS"},"data":[0,0,0,0,0,0,0,0,0,0,0,0,0,0,0,0,0,0,0,0,0,0,0,0,0,0,0,0,0,0,0,0,0,0,0,0,0,0,0,0,0,0,0,0,0,0,0,0,0,0,0,0,0,0,0,0,0,0,-0.1416,-0.1416,0,-0.1447,-0.1447,-0.1447,-0.1422,-0.1421,-0.142,-0.1419,-0.1403,-0.1403,-0.1403,0,0,0,0,0,0,0,0,0,0,0,0,0,-0.1351,-0.1352,-0.1416,-0.1417,-0.1417,-0.1447,-0.1447,-0.1447,-0.1422,-0.1421,-0.142,-0.1419,-0.1403,-0.1403,-0.1403,0,0,0,0,0,0,0,0,0,0,0,0,0,-0.1377,-0.1352,-0.1416,-0.1411,-0.1411,-0.1447,-0.1447,-0.1447,-0.1422,-0.1421,-0.142,-0.1419,-0.1402,-0.1403,-0.1403,-0.1427,0,0,-0.1404,-0.1404,0,0,0,0,0,0,0,0,-0.1375,-0.1379,-0.1411,-0.1411,-0.1412,-0.1432,-0.1418,-0.1439,-0.1422,-0.1414,-0.1419,-0.1418,-0.1411,-0.1411,-0.1415,-0.1427,-0.1426,-0.1404,-0.1405,-0.1405,-0.1405,0,0,0,0,0,0,0,-0.1373,-0.1377,-0.1424,-0.1412,-0.1412,-0.1413,-0.1415,-0.1422,-0.1415,-0.1415,-0.1414,-0.1423,-0.1411,-0.1414,-0.1414,-0.1426,-0.1404,-0.1405,-0.1405,-0.1405,-0.1442,-0.1442,0,0,0,0,0,0,-0.1378,-0.1376,-0.1423,-0.1426,-0.1394,-0.1415,-0.1417,-0.1424,-0.1416,-0.1415,-0.1424,-0.1422,-0.1414,-0.1414,-0.1413,-0.144,-0.1405,-0.1405,-0.1405,-0.1441,-0.1442,-0.1443,0,0,0,0,0,0,-0.1376,-0.1381,-0.1422,-0.1404,-0.141,-0.1418,-0.1425,-0.1425,-0.143,-0.1424,-0.1421,-0.143,-0.1413,-0.1413,-0.1426,-0.1439,-0.1405,-0.1405,-0.144,-0.1441,-0.1442,-0.1494,0,0,0,0,0,0,-0.1374,-0.1381,-0.1382,-0.1405,-0.1411,-0.1449,-0.1427,-0.1427,-0.144,-0.1437,-0.1429,-0.1426,-0.1413,-0.1425,-0.1426,-0.1439,-0.1406,-0.1439,-0.144,-0.1442,-0.1492,-0.1497,-0.1502,0,0,0,0,0,-0.1371,-0.1382,-0.1381,-0.1387,-0.1414,-0.145,-0.1454,-0.1453,-0.1441,-0.1451,-0.1445,-0.1426,-0.1434,-0.1427,-0.1427,-0.1441,-0.1438,-0.144,-0.1442,-0.1489,-0.1496,-0.1502,0,0,0,0,0,0,-0.1354,-0.1382,-0.1381,-0.1398,-0.1425,-0.1447,-0.1455,-0.146,-0.1464,-0.1457,-0.1443,-0.1441,-0.1454,-0.1444,-0.1436,-0.1454,-0.143,-0.1432,-0.1466,-0.1473,-0.1478,-0.1486,-0.1406,0,0,0,0,0,-0.1353,-0.1363,-0.1396,-0.1408,-0.1423,-0.1441,-0.1453,-0.146,-0.1471,-0.1471,-0.1465,-0.1459,-0.1464,-0.1465,-0.1464,-0.1482,-0.1506,-0.1488,-0.1493,-0.1498,-0.1505,-0.158,-0.1594,-0.1448,-0.1448,-0.1448,0,0,-0.1347,-0.1365,-0.1368,-0.1405,-0.142,-0.1454,-0.1444,-0.1471,-0.1494,-0.147,-0.1486,-0.1478,-0.1472,-0.1488,-0.1492,-0.148,-0.155,-0.15,-0.1504,-0.1508,-0.1584,-0.1598,-0.1611,-0.1449,-0.1449,-0.1449,0,0,-0.135,-0.1361,-0.1374,-0.1405,-0.1442,-0.1461,-0.1473,-0.1502,-0.1506,-0.1533,-0.1515,-0.1526,-0.1527,-0.1532,-0.1533,-0.157,-0.1574,-0.1556,-0.1591,-0.1665,-0.1678,-0.169,-0.1733,-0.1749,-0.1559,-0.1559,-0.1559,0,-0.1342,-0.1367,-0.1385,-0.1419,-0.1447,-0.1468,-0.1503,-0.1521,-0.1547,-0.1561,-0.1542,-0.1572,-0.1555,-0.1596,-0.1589,-0.1584,-0.1614,-0.1569,-0.1674,-0.1686,-0.1698,-0.174,-0.1756,-0.1562,-0.1561,-0.1561,-0.1561,0,-0.1364,-0.139,-0.1406,-0.1452,-0.1486,-0.152,-0.156,-0.1583,-0.1591,-0.161,-0.1648,-0.1643,-0.1662,-0.1653,-0.1624,-0.1688,-0.1679,-0.1674,-0.1663,-0.1716,-0.1756,-0.1772,-0.1566,-0.1565,-0.1564,-0.1563,0,0,-0.1338,-0.1405,-0.1412,-0.1441,-0.1508,-0.1539,-0.1588,-0.164,-0.1682,-0.1698,-0.1758,-0.1748,-0.1747,-0.1748,-0.173,-0.1774,-0.1858,-0.1747,-0.1749,-0.1798,-0.2008,-0.1888,-0.1893,-0.1878,-0.1881,-0.1883,-0.2002,0,-0.135,-0.1404,-0.1443,-0.1504,-0.1541,-0.159,-0.1639,-0.169,-0.1729,-0.1791,-0.1809,-0.1847,-0.1786,-0.1797,-0.1836,-0.186,-0.1904,-0.1825,-0.1942,-0.1945,-0.1839,-0.1909,-0.176,-0.1843,-0.2017,-0.202,-0.2022,0,-0.1365,-0.1402,-0.1454,-0.1537,-0.1558,-0.1597,-0.1688,-0.1734,-0.1827,-0.1861,-0.1916,-0.1938,-0.1993,-0.1941,-0.2033,-0.1987,-0.1992,-0.2009,-0.2015,-0.1896,-0.1855,-0.1818,-0.1865,-0.1839,-0.2047,-0.2045,-0.2043,0,-0.1334,-0.1414,-0.1449,-0.1479,-0.1574,-0.1605,-0.165,-0.1744,-0.1802,-0.1905,-0.1974,-0.2045,-0.2092,-0.2138,-0.2122,-0.2102,-0.2225,-0.2216,-0.2121,-0.2112,-0.2002,-0.1977,-0.2042,-0.2294,-0.2294,-0.2293,-0.2293,0,-0.1338,-0.137,-0.1433,-0.1456,-0.1507,-0.1582,-0.1655,-0.1714,-0.1838,-0.1926,-0.1994,-0.208,-0.2143,-0.2205,-0.2192,-0.2191,-0.2286,-0.2142,-0.2145,-0.2011,-0.1987,-0.1969,-0.1988,-0.2298,-0.2297,-0.2296,-0.2295,0,-0.1303,-0.1344,-0.1389,-0.1469,-0.1491,-0.1521,-0.1637,-0.1711,-0.182,-0.1951,-0.1991,-0.2134,-0.2205,-0.2241,-0.2318,-0.2269,-0.2238,-0.2251,-0.2062,-0.2038,-0.1911,-0.1937,-0.2028,-0.1969,-0.221,-0.2208,-0.2206,0,-0.129,-0.1304,-0.1368,-0.1389,-0.142,-0.1481,-0.1543,-0.1669,-0.1765,-0.197,-0.2043,-0.2159,-0.2199,-0.2257,-0.2206,-0.2189,-0.2175,-0.2036,-0.1962,-0.1893,-0.1929,-0.1957,-0.1903,-0.1851,-0.1846,-0.1842,-0.1839,0,-0.1257,-0.127,-0.13,-0.1335,-0.1385,-0.1459,-0.1555,-0.1629,-0.1804,-0.1907,-0.2036,-0.2079,-0.2132,-0.2043,-0.2002,-0.1967,-0.1963,-0.1956,-0.1964,-0.1713,-0.1677,-0.1621,-0.1773,-0.1806,-0.1809,-0.1812,-0.1814,-0.1815,-0.1216,-0.1217,-0.1242,-0.1273,-0.1339,-0.1419,-0.1449,-0.1572,-0.1675,-0.1788,-0.1906,-0.1905,-0.1876,-0.1793,-0.1757,-0.1638,-0.1745,-0.1573,-0.1633,-0.1686,-0.1555,-0.1601,-0.1577,-0.1578,-0.158,-0.1582,-0.1583,0,-0.1158,-0.1159,-0.1184,-0.1223,-0.1269,-0.1328,-0.1451,-0.1463,-0.152,-0.1592,-0.1624,-0.1604,-0.1495,-0.149,-0.1409,-0.1334,-0.1309,-0.1312,-0.1337,-0.1313,-0.1415,-0.1317,-0.1138,-0.1138,-0.1138,-0.1138,-0.1138,-0.1138,-0.1125,-0.1107,-0.1115,-0.1132,-0.1169,-0.1199,-0.124,-0.1249,-0.1273,-0.1242,-0.1237,-0.1265,-0.1311,-0.1409,-0.1296,-0.1212,-0.1208,-0.1152,-0.1232,-0.1306,-0.1335,-0.1363,-0.1274,-0.1089,-0.109,-0.103,-0.103,-0.103]},{"header":{"parameterUnit":"m.s-1","parameterCategory":2,"la1":30.2991,"la2":30.254,"lo1":-89.0895,"lo2":-89.0444,"dy":0.0017,"dx":0.0017,"nx":28,"ny":28,"refTime":"2025-03-20T21:00:00:Z","depth":"0","parameterNumber":3,"parameterNumberName":"V-component_of_CURRENTS"},"data":[0,0,0,0,0,0,0,0,0,0,0,0,0,0,0,0,0,0,0,0,0,0,0,0,0,0,0,0,0,0,0,0,0,0,0,0,0,0,0,0,0,0,0,0,0,0,0,0,0,0,0,0,0,0,0,0,0,0,-0.0843,-0.0843,0,-0.0768,-0.0767,-0.0766,-0.072,-0.072,-0.072,-0.072,-0.0576,-0.0572,-0.0568,0,0,0,0,0,0,0,0,0,0,0,0,0,-0.0834,-0.0835,-0.0843,-0.0843,-0.0842,-0.0769,-0.0767,-0.0766,-0.072,-0.072,-0.072,-0.072,-0.0577,-0.0572,-0.0568,0,0,0,0,0,0,0,0,0,0,0,0,0,-0.0805,-0.0836,-0.0843,-0.0811,-0.0808,-0.0769,-0.0767,-0.0766,-0.072,-0.072,-0.072,-0.072,-0.0578,-0.0573,-0.0567,-0.0535,0,0,-0.055,-0.0547,0,0,0,0,0,0,0,0,-0.0807,-0.0806,-0.0817,-0.0814,-0.081,-0.0755,-0.0711,-0.0686,-0.072,-0.0752,-0.072,-0.072,-0.063,-0.062,-0.0605,-0.0528,-0.0522,-0.0549,-0.0546,-0.0544,-0.0542,0,0,0,0,0,0,0,-0.0809,-0.0808,-0.0812,-0.0816,-0.0812,-0.0762,-0.0759,-0.0706,-0.069,-0.0749,-0.0746,-0.074,-0.0628,-0.0611,-0.0601,-0.052,-0.055,-0.0545,-0.0541,-0.0539,-0.0373,-0.0372,0,0,0,0,0,0,-0.0829,-0.0811,-0.0814,-0.081,-0.081,-0.0763,-0.0759,-0.0771,-0.0692,-0.0681,-0.0741,-0.0739,-0.062,-0.0608,-0.0596,-0.0538,-0.0544,-0.0538,-0.0535,-0.0374,-0.0373,-0.0372,0,0,0,0,0,0,-0.0829,-0.083,-0.0817,-0.0808,-0.0804,-0.0765,-0.0778,-0.077,-0.075,-0.0687,-0.0674,-0.0729,-0.062,-0.0604,-0.0543,-0.0533,-0.0536,-0.0531,-0.0375,-0.0374,-0.0372,-0.0432,0,0,0,0,0,0,-0.0829,-0.0831,-0.0839,-0.0811,-0.0805,-0.0795,-0.0778,-0.0769,-0.0748,-0.0744,-0.0672,-0.0659,-0.0619,-0.0552,-0.0538,-0.0525,-0.0526,-0.0377,-0.0375,-0.0373,-0.0431,-0.0433,-0.0434,0,0,0,0,0,-0.083,-0.0843,-0.0841,-0.084,-0.0821,-0.0796,-0.0788,-0.0757,-0.0748,-0.0738,-0.0688,-0.0661,-0.0529,-0.0547,-0.053,-0.0516,-0.0377,-0.0375,-0.0373,-0.0431,-0.0432,-0.0434,0,0,0,0,0,0,-0.0833,-0.0839,-0.0836,-0.0848,-0.0825,-0.0788,-0.0778,-0.0758,-0.0712,-0.0707,-0.0648,-0.0631,-0.0575,-0.0532,-0.0553,-0.046,-0.0448,-0.0443,-0.0498,-0.0499,-0.05,-0.0514,-0.0521,0,0,0,0,0,-0.0843,-0.0862,-0.0845,-0.0852,-0.0845,-0.0812,-0.0796,-0.0778,-0.0737,-0.0718,-0.0668,-0.0608,-0.0552,-0.0518,-0.0464,-0.0412,-0.0361,-0.039,-0.0391,-0.0393,-0.0391,-0.0322,-0.0317,-0.0364,-0.0364,-0.0364,0,0,-0.0849,-0.0851,-0.0862,-0.0855,-0.0836,-0.0822,-0.0802,-0.0784,-0.0762,-0.0707,-0.0659,-0.0612,-0.0539,-0.0485,-0.0455,-0.0448,-0.0347,-0.039,-0.0392,-0.0389,-0.0319,-0.0315,-0.0311,-0.0363,-0.0363,-0.0363,0,0,-0.0865,-0.0871,-0.089,-0.0875,-0.0854,-0.0828,-0.0826,-0.079,-0.0765,-0.0716,-0.0672,-0.0619,-0.0533,-0.0483,-0.0445,-0.0416,-0.036,-0.0399,-0.0412,-0.0346,-0.0342,-0.0338,-0.0251,-0.0239,-0.0396,-0.0396,-0.0396,0,-0.0866,-0.0893,-0.0885,-0.0887,-0.0874,-0.0835,-0.0833,-0.0796,-0.0742,-0.0718,-0.0705,-0.0585,-0.053,-0.0459,-0.0451,-0.042,-0.0369,-0.0419,-0.035,-0.0345,-0.034,-0.0252,-0.0237,-0.0399,-0.0398,-0.0398,-0.0398,0,-0.0895,-0.0907,-0.0911,-0.0908,-0.0887,-0.0879,-0.0835,-0.0805,-0.0771,-0.0734,-0.0666,-0.0594,-0.0523,-0.0498,-0.0464,-0.0401,-0.037,-0.0367,-0.0355,-0.0339,-0.0246,-0.023,-0.0402,-0.0401,-0.0401,-0.04,0,0,-0.0912,-0.0933,-0.0931,-0.0938,-0.0901,-0.0889,-0.0848,-0.0803,-0.0781,-0.0716,-0.0677,-0.0585,-0.0556,-0.051,-0.0462,-0.0406,-0.0322,-0.0377,-0.0372,-0.0305,-0.0156,-0.0167,-0.015,-0.0314,-0.0312,-0.0311,-0.0101,0,-0.0931,-0.0964,-0.0954,-0.0954,-0.0962,-0.0913,-0.088,-0.083,-0.078,-0.0729,-0.0648,-0.0592,-0.0556,-0.0529,-0.0464,-0.0363,-0.0285,-0.0378,-0.0168,-0.0161,-0.0185,-0.0134,-0.0116,0.0068,-0.0085,-0.0082,-0.008,0,-0.0952,-0.0975,-0.1002,-0.0996,-0.0992,-0.0977,-0.0926,-0.089,-0.0804,-0.0765,-0.0695,-0.0635,-0.0532,-0.0515,-0.0319,-0.0382,-0.0269,-0.0189,-0.0179,-0.0159,-0.0143,0.0028,0.0103,0.0276,-0.0055,-0.0057,-0.0059,0,-0.0981,-0.0996,-0.1027,-0.1025,-0.1011,-0.1003,-0.0976,-0.0907,-0.088,-0.0791,-0.0764,-0.0637,-0.0567,-0.0427,-0.0261,-0.0284,-0.0045,-0.0051,0.0059,0.0061,0.0134,0.0137,0.0386,0.01,0.01,0.0099,0.0098,0,-0.1005,-0.1023,-0.1051,-0.107,-0.1083,-0.1048,-0.1037,-0.0992,-0.093,-0.0897,-0.0792,-0.074,-0.0545,-0.0395,-0.0249,-0.0042,-0.0022,0.0076,0.0114,0.0115,0.0114,0.0311,0.0376,0.0107,0.0105,0.0104,0.0102,0,-0.1029,-0.1052,-0.1088,-0.1103,-0.1107,-0.1113,-0.1092,-0.1082,-0.1014,-0.0967,-0.0942,-0.0788,-0.0595,-0.0391,-0.0137,-0.0023,0.0274,0.024,0.0234,0.0266,0.0481,0.054,0.0815,0.0911,0.0395,0.0396,0.0397,0,-0.1047,-0.1078,-0.1126,-0.1155,-0.1167,-0.1174,-0.1181,-0.1129,-0.1115,-0.1001,-0.0983,-0.0794,-0.0662,-0.0293,-0.0044,0.0238,0.0367,0.0411,0.0358,0.0515,0.0612,0.0648,0.0711,0.046,0.0462,0.0463,0.0463,0,-0.1075,-0.11,-0.1134,-0.1207,-0.1238,-0.126,-0.1263,-0.1266,-0.1192,-0.1135,-0.103,-0.0919,-0.0575,-0.0264,0.009,0.0252,0.0522,0.0437,0.0621,0.07,0.0742,0.0843,0.0314,0.0473,0.0472,0.0471,0.047,0.047,-0.1086,-0.1122,-0.1184,-0.1243,-0.129,-0.1333,-0.1339,-0.1322,-0.1285,-0.1186,-0.1085,-0.0892,-0.0436,0.005,0.0238,0.0651,0.0624,0.0771,0.0841,0.0874,0.0925,0.0406,0.0572,0.0572,0.0571,0.0571,0.0571,0,-0.1098,-0.115,-0.1217,-0.129,-0.1351,-0.1364,-0.1384,-0.1357,-0.1303,-0.1201,-0.1082,-0.061,-0.017,0.0262,0.0838,0.106,0.1114,0.118,0.1273,0.1326,0.0908,0.0865,0.1076,0.1076,0.1076,0.1076,0.1075,0.1075,-0.1106,-0.1178,-0.1222,-0.1326,-0.1376,-0.1422,-0.1429,-0.1358,-0.1271,-0.1028,-0.0784,-0.0602,0.0062,0.0935,0.1461,0.1506,0.1721,0.1686,0.1809,0.1546,0.1514,0.1483,0.1462,0.1795,0.1796,0.221,0.2214,0.2218]}],[{"header":{"parameterUnit":"m.s-1","parameterCategory":2,"la1":30.2991,"la2":30.254,"lo1":-89.0895,"lo2":-89.0444,"dy":0.0017,"dx":0.0017,"nx":28,"ny":28,"refTime":"2025-03-20T21:00:00:Z","depth":"2","parameterNumber":2,"parameterNumberName":"U-component_of_CURRENTS"},"data":[0,0,0,0,0,0,0,0,0,0,0,0,0,0,0,0,0,0,0,0,0,0,0,0,0,0,0,0,0,0,0,0,0,0,0,0,0,0,0,0,0,0,0,0,0,0,0,0,0,0,0,0,0,0,0,0,0,0,-0.2301,-0.2301,0,-0.2322,-0.2322,-0.2322,-0.2294,-0.2294,-0.2293,-0.2292,-0.2181,-0.2179,-0.2176,0,0,0,0,0,0,0,0,0,0,0,0,0,-0.2229,-0.223,-0.2301,-0.2301,-0.2302,-0.2322,-0.2322,-0.2322,-0.2294,-0.2294,-0.2293,-0.2292,-0.2182,-0.2179,-0.2176,0,0,0,0,0,0,0,0,0,0,0,0,0,-0.2253,-0.223,-0.23,-0.2293,-0.2292,-0.2322,-0.2322,-0.2322,-0.2295,-0.2293,-0.2292,-0.2291,-0.2183,-0.2179,-0.2176,-0.2176,0,0,-0.2165,-0.2164,0,0,0,0,0,0,0,0,-0.2252,-0.2255,-0.2293,-0.2293,-0.2293,-0.2307,-0.2257,-0.2268,-0.2295,-0.229,-0.2292,-0.2291,-0.2214,-0.2208,-0.2211,-0.2171,-0.2166,-0.2165,-0.2163,-0.2162,-0.2161,0,0,0,0,0,0,0,-0.225,-0.2254,-0.2306,-0.2294,-0.2294,-0.2286,-0.2288,-0.2259,-0.2253,-0.2291,-0.2289,-0.2298,-0.2212,-0.2215,-0.2208,-0.2165,-0.2165,-0.2162,-0.216,-0.2159,-0.2113,-0.2113,0,0,0,0,0,0,-0.2256,-0.2253,-0.2305,-0.2307,-0.2273,-0.2289,-0.2291,-0.2301,-0.2256,-0.225,-0.2298,-0.2296,-0.2221,-0.2212,-0.2204,-0.2181,-0.2162,-0.2158,-0.2156,-0.2112,-0.2113,-0.2114,0,0,0,0,0,0,-0.2254,-0.226,-0.2304,-0.2282,-0.2288,-0.2292,-0.2303,-0.2302,-0.2299,-0.2264,-0.2255,-0.2296,-0.222,-0.2209,-0.2179,-0.2177,-0.2157,-0.2154,-0.2111,-0.2112,-0.2113,-0.2148,0,0,0,0,0,0,-0.2252,-0.226,-0.2269,-0.2283,-0.229,-0.2324,-0.2305,-0.2304,-0.2308,-0.2305,-0.2259,-0.2248,-0.2219,-0.2184,-0.2175,-0.2172,-0.2151,-0.211,-0.2111,-0.2113,-0.2145,-0.215,-0.2154,0,0,0,0,0,-0.2249,-0.2271,-0.2269,-0.2276,-0.2302,-0.2325,-0.2327,-0.2323,-0.2309,-0.2314,-0.2282,-0.2249,-0.2188,-0.2182,-0.2171,-0.2167,-0.2109,-0.2111,-0.2113,-0.2143,-0.2149,-0.2154,0,0,0,0,0,0,-0.2239,-0.2271,-0.2269,-0.2297,-0.231,-0.2321,-0.2331,-0.2325,-0.2308,-0.2295,-0.2255,-0.2243,-0.2214,-0.2194,-0.2188,-0.2162,-0.2145,-0.2145,-0.2172,-0.2177,-0.2181,-0.2198,-0.2148,0,0,0,0,0,-0.2244,-0.2267,-0.2289,-0.2308,-0.2319,-0.2323,-0.2331,-0.2326,-0.2317,-0.2308,-0.2274,-0.2242,-0.2218,-0.2199,-0.2172,-0.2156,-0.2151,-0.215,-0.2154,-0.2158,-0.2167,-0.2227,-0.2237,-0.212,-0.212,-0.212,0,0,-0.2242,-0.2265,-0.2274,-0.2307,-0.2316,-0.2337,-0.2324,-0.2337,-0.2343,-0.2297,-0.2282,-0.2249,-0.2217,-0.2198,-0.2185,-0.2178,-0.2171,-0.216,-0.2163,-0.2171,-0.223,-0.2241,-0.2252,-0.2121,-0.2121,-0.2121,0,0,-0.2254,-0.2272,-0.2295,-0.2313,-0.2336,-0.2344,-0.2348,-0.2354,-0.2347,-0.2331,-0.2303,-0.2288,-0.2231,-0.223,-0.2216,-0.2234,-0.2191,-0.2205,-0.2238,-0.2296,-0.2306,-0.2316,-0.225,-0.2253,-0.221,-0.221,-0.221,0,-0.2245,-0.2282,-0.2303,-0.2331,-0.2346,-0.2349,-0.2368,-0.2373,-0.2361,-0.2364,-0.2326,-0.2295,-0.2258,-0.2272,-0.226,-0.2244,-0.2224,-0.2218,-0.2303,-0.2312,-0.2322,-0.2253,-0.2256,-0.2212,-0.2212,-0.2212,-0.2211,0,-0.2274,-0.2303,-0.2319,-0.2356,-0.2376,-0.2393,-0.2408,-0.2415,-0.2396,-0.2394,-0.2388,-0.2353,-0.2338,-0.2321,-0.2279,-0.2322,-0.2263,-0.23,-0.2291,-0.2336,-0.2258,-0.2261,-0.2215,-0.2214,-0.2213,-0.2213,0,0,-0.2245,-0.2324,-0.2327,-0.2349,-0.2388,-0.2405,-0.2433,-0.2461,-0.2484,-0.2458,-0.2487,-0.2438,-0.2417,-0.2403,-0.2369,-0.2404,-0.2408,-0.2362,-0.2364,-0.2296,-0.2437,-0.2355,-0.2349,-0.2462,-0.2465,-0.2467,-0.2329,0,-0.2252,-0.2318,-0.235,-0.2389,-0.242,-0.2444,-0.2471,-0.2495,-0.2504,-0.2532,-0.2523,-0.252,-0.2451,-0.2435,-0.246,-0.2437,-0.2429,-0.2435,-0.2405,-0.2402,-0.2328,-0.2358,-0.2174,-0.2036,-0.2332,-0.2333,-0.2333,0,-0.2257,-0.2306,-0.2356,-0.2418,-0.2431,-0.2444,-0.2501,-0.2524,-0.2579,-0.2585,-0.2603,-0.2594,-0.2602,-0.2562,-0.254,-0.254,-0.2475,-0.2455,-0.2452,-0.2376,-0.2331,-0.2056,-0.2031,-0.2338,-0.2338,-0.2337,-0.2337,0,-0.2225,-0.23,-0.2341,-0.2361,-0.2434,-0.2445,-0.2469,-0.2526,-0.2555,-0.2621,-0.2629,-0.2669,-0.2627,-0.2648,-0.2548,-0.2553,-0.2523,-0.2542,-0.2395,-0.2383,-0.2223,-0.2195,-0.2541,-0.2542,-0.2542,-0.2542,-0.2543,0,-0.2209,-0.224,-0.2324,-0.2341,-0.2376,-0.2421,-0.2456,-0.2498,-0.2565,-0.2561,-0.2629,-0.2615,-0.2648,-0.262,-0.2584,-0.2468,-0.2542,-0.2393,-0.2373,-0.2218,-0.2193,-0.2476,-0.247,-0.2537,-0.2538,-0.2539,-0.254,0,-0.2152,-0.2216,-0.2266,-0.2342,-0.2358,-0.2371,-0.2427,-0.2445,-0.251,-0.2513,-0.2525,-0.2558,-0.2504,-0.2517,-0.2499,-0.2443,-0.2417,-0.2349,-0.2098,-0.2054,-0.2211,-0.2209,-0.2192,-0.2188,-0.2186,-0.2183,-0.2181,0,-0.2132,-0.2158,-0.2247,-0.2259,-0.2278,-0.2312,-0.2314,-0.2399,-0.2382,-0.2434,-0.2386,-0.2392,-0.2329,-0.2288,-0.2242,-0.2186,-0.2276,-0.1965,-0.1985,-0.2209,-0.219,-0.2192,-0.2194,-0.1729,-0.1723,-0.1719,-0.1715,0,-0.2081,-0.2115,-0.2137,-0.2177,-0.2179,-0.2194,-0.2175,-0.2171,-0.2203,-0.2222,-0.2177,-0.2181,-0.2105,-0.1985,-0.1928,-0.188,-0.1992,-0.187,-0.2203,-0.1873,-0.1771,-0.1753,-0.177,-0.1675,-0.1679,-0.1682,-0.1684,-0.1686,-0.2012,-0.2015,-0.2042,-0.2056,-0.2053,-0.1996,-0.195,-0.1935,-0.1911,-0.1856,-0.1919,-0.1864,-0.1851,-0.17,-0.1612,-0.1549,-0.1694,-0.1628,-0.1643,-0.1662,-0.1661,-0.1564,-0.1419,-0.1422,-0.1424,-0.1426,-0.1427,0,-0.1905,-0.1916,-0.1922,-0.1892,-0.1809,-0.1874,-0.1788,-0.1712,-0.161,-0.1623,-0.1602,-0.1452,-0.1369,-0.1385,-0.1218,-0.1187,-0.118,-0.114,-0.1136,-0.1176,-0.1211,-0.119,-0.0821,-0.0819,-0.0818,-0.0816,0,0,-0.1833,-0.18,-0.1798,-0.163,-0.1609,-0.1462,-0.1387,-0.1326,-0.1291,-0.1225,-0.1213,-0.132,-0.1351,-0.1101,-0.103,-0.0902,-0.1032,-0.0847,-0.1331,-0.1366,-0.14,-0.1485,-0.1496,0,0,0,0,0]},{"header":{"parameterUnit":"m.s-1","parameterCategory":2,"la1":30.2991,"la2":30.254,"lo1":-89.0895,"lo2":-89.0444,"dy":0.0017,"dx":0.0017,"nx":28,"ny":28,"refTime":"2025-03-20T21:00:00:Z","depth":"2","parameterNumber":3,"parameterNumberName":"V-component_of_CURRENTS"},"data":[0,0,0,0,0,0,0,0,0,0,0,0,0,0,0,0,0,0,0,0,0,0,0,0,0,0,0,0,0,0,0,0,0,0,0,0,0,0,0,0,0,0,0,0,0,0,0,0,0,0,0,0,0,0,0,0,0,0,0.0369,0.0371,0,0.0543,0.0545,0.0547,0.0609,0.0608,0.0607,0.0607,0.0641,0.0643,0.0644,0,0,0,0,0,0,0,0,0,0,0,0,0,0.024,0.0241,0.0369,0.0371,0.0373,0.0543,0.0545,0.0548,0.0609,0.0608,0.0607,0.0606,0.0641,0.0643,0.0644,0,0,0,0,0,0,0,0,0,0,0,0,0,0.0343,0.0241,0.0368,0.0424,0.043,0.0542,0.0545,0.0548,0.0609,0.0608,0.0607,0.0606,0.064,0.0642,0.0645,0.068,0,0,0.0652,0.0653,0,0,0,0,0,0,0,0,0.0337,0.0348,0.0413,0.042,0.0428,0.0553,0.0513,0.0585,0.0609,0.0542,0.0607,0.0605,0.0599,0.0605,0.0643,0.0682,0.0683,0.0652,0.0654,0.0655,0.0655,0,0,0,0,0,0,0,0.0329,0.0342,0.0438,0.0416,0.0424,0.0491,0.0503,0.0528,0.0572,0.0547,0.0552,0.0571,0.0602,0.064,0.0643,0.0684,0.0652,0.0654,0.0656,0.0657,0.0667,0.0666,0,0,0,0,0,0,0.03,0.0334,0.0433,0.0443,0.0378,0.0494,0.0508,0.0514,0.0575,0.0584,0.0572,0.0573,0.0637,0.0641,0.0645,0.0588,0.0655,0.0657,0.0658,0.0668,0.0666,0.0665,0,0,0,0,0,0,0.0297,0.0307,0.0426,0.0393,0.0413,0.0496,0.0504,0.0518,0.0533,0.0595,0.0601,0.0569,0.0636,0.0641,0.0635,0.0593,0.0658,0.066,0.0669,0.0667,0.0666,0.0539,0,0,0,0,0,0,0.0292,0.0304,0.0292,0.039,0.0413,0.0466,0.0505,0.0522,0.0548,0.055,0.0595,0.0599,0.0636,0.0631,0.0638,0.0597,0.0662,0.0671,0.0668,0.0666,0.0544,0.0533,0.0523,0,0,0,0,0,0.0287,0.0276,0.029,0.0302,0.0396,0.0466,0.0483,0.0541,0.0548,0.055,0.0571,0.0596,0.0622,0.0633,0.064,0.0599,0.0672,0.0669,0.0667,0.0549,0.0535,0.0523,0,0,0,0,0,0,0.0223,0.0285,0.0302,0.0311,0.037,0.0475,0.0484,0.0523,0.0549,0.0534,0.0586,0.0592,0.0574,0.0607,0.0617,0.0598,0.065,0.0648,0.0558,0.0545,0.0534,0.0536,0.0664,0,0,0,0,0,0.02,0.0199,0.0279,0.0284,0.0304,0.0387,0.0418,0.0455,0.0499,0.0511,0.054,0.0562,0.0577,0.0574,0.0601,0.0588,0.0632,0.0567,0.0556,0.0546,0.0554,0.061,0.0606,0.0657,0.0657,0.0657,0,0,0.0178,0.0211,0.0212,0.0269,0.0315,0.0339,0.0402,0.0433,0.0443,0.0506,0.0502,0.0527,0.0568,0.0556,0.0549,0.0569,0.0543,0.0543,0.0534,0.0548,0.0607,0.0602,0.0598,0.0655,0.0655,0.0656,0,0,0.014,0.0157,0.0145,0.0182,0.0236,0.0288,0.0284,0.0362,0.0379,0.039,0.0428,0.0432,0.0457,0.0483,0.0497,0.0447,0.0492,0.0436,0.0373,0.0426,0.0423,0.0421,0.0417,0.0415,0.0422,0.0422,0.0422,0,0.0109,0.0106,0.0155,0.0158,0.0178,0.0251,0.0249,0.0287,0.0349,0.0352,0.0362,0.0403,0.0431,0.0427,0.0403,0.0422,0.0441,0.0413,0.0412,0.0412,0.0411,0.0409,0.0409,0.0416,0.0416,0.0417,0.0418,0,0.0073,0.0065,0.0061,0.0079,0.0106,0.0116,0.0174,0.0183,0.0203,0.0245,0.0243,0.029,0.0316,0.0312,0.0339,0.0335,0.0341,0.0397,0.0442,0.0399,0.0398,0.04,0.0406,0.0409,0.0411,0.0412,0,0,0.0022,0.003,0.0026,0.0011,0.006,0.0077,0.0079,0.0111,0.0101,0.0141,0.014,0.0162,0.0189,0.0209,0.024,0.0274,0.0266,0.0315,0.0321,0.0305,0.0333,0.036,0.0366,0.0318,0.0319,0.0319,0.0313,0,-0.0022,-0.0056,-0.0029,-0.006,-0.0073,-0.002,-0.0023,0.0008,0.0037,0.0052,0.0101,0.0109,0.0149,0.0142,0.0183,0.0271,0.0275,0.026,0.0385,0.0388,0.0415,0.0372,0.0378,0.0377,0.0316,0.0316,0.0316,0,-0.0063,-0.0085,-0.0129,-0.0149,-0.015,-0.0157,-0.0155,-0.0146,-0.01,-0.0081,-0.0051,0.0002,0.0047,0.0093,0.0201,0.0185,0.0235,0.0296,0.0299,0.0382,0.0423,0.0424,0.0385,0.0322,0.0321,0.0321,0.032,0,-0.0128,-0.0156,-0.0204,-0.0205,-0.0207,-0.0229,-0.023,-0.0198,-0.0202,-0.0163,-0.0156,-0.0083,-0.005,0.0053,0.0174,0.0184,0.03,0.0342,0.0396,0.0396,0.046,0.0465,0.0396,0.0396,0.0396,0.0396,0.0396,0,-0.0178,-0.0221,-0.0248,-0.0273,-0.0341,-0.0312,-0.0361,-0.0348,-0.0323,-0.0332,-0.0238,-0.0226,-0.0053,0.0039,0.0147,0.0279,0.0279,0.0378,0.0409,0.0408,0.0409,0.0429,0.0433,0.0396,0.0396,0.0396,0.0396,0,-0.0236,-0.0249,-0.0314,-0.0352,-0.0373,-0.0424,-0.0451,-0.0475,-0.0444,-0.0445,-0.0437,-0.0328,-0.02,-0.0038,0.0131,0.0237,0.0369,0.0399,0.0357,0.0385,0.0422,0.0419,0.0464,0.0465,0.0466,0.0467,0.0467,0,-0.027,-0.0309,-0.0384,-0.0438,-0.0463,-0.0525,-0.0561,-0.0546,-0.0553,-0.0511,-0.0509,-0.0402,-0.031,-0.0054,0.016,0.0351,0.0356,0.0447,0.049,0.0409,0.0434,0.043,0.0426,0.0489,0.049,0.0491,0.0491,0,-0.0338,-0.0365,-0.0414,-0.0523,-0.0586,-0.0644,-0.0686,-0.0706,-0.0673,-0.0666,-0.0628,-0.0557,-0.0299,-0.0052,0.0211,0.0327,0.0435,0.0467,0.0417,0.0481,0.0437,0.046,0.0455,0.0497,0.0497,0.0496,0.0496,0.0496,-0.0387,-0.044,-0.0508,-0.0606,-0.0676,-0.0739,-0.0782,-0.0801,-0.0819,-0.0775,-0.0698,-0.0543,-0.0306,0.0101,0.0282,0.0474,0.0469,0.0541,0.0537,0.0533,0.0548,0.051,0.0582,0.0582,0.0582,0.0581,0.0581,0,-0.0434,-0.0498,-0.0591,-0.0687,-0.0755,-0.0788,-0.0841,-0.0861,-0.0881,-0.0784,-0.0714,-0.0442,-0.0146,0.0106,0.0419,0.0581,0.0574,0.0608,0.058,0.0574,0.0569,0.0584,0.0628,0.0628,0.0629,0.0629,0,0,-0.0463,-0.0543,-0.0582,-0.0709,-0.0792,-0.0872,-0.0901,-0.0929,-0.0861,-0.0801,-0.065,-0.0422,-0.0103,0.0122,0.0333,0.0499,0.0489,0.051,0.0462,0.04,0.0392,0.0526,0.0542,0,0,0,0,0]}],[{"header":{"parameterUnit":"m.s-1","parameterCategory":2,"la1":30.2991,"la2":30.254,"lo1":-89.0895,"lo2":-89.0444,"dy":0.0017,"dx":0.0017,"nx":28,"ny":28,"refTime":"2025-03-20T21:00:00:Z","depth":"4","parameterNumber":2,"parameterNumberName":"U-component_of_CURRENTS"},"data":[0,0,0,0,0,0,0,0,0,0,0,0,0,0,0,0,0,0,0,0,0,0,0,0,0,0,0,0,0,0,0,0,0,0,0,0,0,0,0,0,0,0,0,0,0,0,0,0,0,0,0,0,0,0,0,0,0,0,-0.1181,-0.1181,0,-0.1238,-0.1239,-0.1239,-0.1276,-0.1277,-0.1277,-0.1277,-0.1335,-0.1336,-0.1337,0,0,0,0,0,0,0,0,0,0,0,0,0,-0.1107,-0.1108,-0.1181,-0.1182,-0.1182,-0.1238,-0.1239,-0.124,-0.1276,-0.1277,-0.1277,-0.1278,-0.1334,-0.1336,-0.1337,0,0,0,0,0,0,0,0,0,0,0,0,0,-0.1149,-0.1109,-0.1181,-0.1208,-0.1211,-0.1238,-0.1239,-0.124,-0.1276,-0.1277,-0.1277,-0.1278,-0.1334,-0.1335,-0.1337,-0.134,0,0,-0.1343,-0.1344,0,0,0,0,0,0,0,0,-0.1146,-0.1151,-0.1203,-0.1206,-0.121,-0.1251,-0.1234,-0.1274,-0.1276,-0.1251,-0.1277,-0.1278,-0.1307,-0.1311,-0.132,-0.1342,-0.1345,-0.1343,-0.1344,-0.1345,-0.1346,0,0,0,0,0,0,0,-0.1143,-0.1149,-0.1203,-0.1204,-0.1208,-0.1219,-0.1225,-0.1242,-0.1275,-0.1253,-0.1256,-0.1264,-0.1309,-0.1318,-0.1321,-0.1346,-0.1343,-0.1345,-0.1346,-0.1347,-0.1446,-0.1447,0,0,0,0,0,0,-0.1137,-0.1146,-0.1201,-0.1205,-0.1179,-0.122,-0.1227,-0.1237,-0.1275,-0.1281,-0.1263,-0.1265,-0.1314,-0.1319,-0.1323,-0.1385,-0.1345,-0.1347,-0.1348,-0.1444,-0.1446,-0.1448,0,0,0,0,0,0,-0.1135,-0.1142,-0.1199,-0.1177,-0.1185,-0.1221,-0.1232,-0.1238,-0.1267,-0.1283,-0.1289,-0.1288,-0.1315,-0.1321,-0.1367,-0.1385,-0.1348,-0.1349,-0.1442,-0.1445,-0.1447,-0.1472,0,0,0,0,0,0,-0.1133,-0.1141,-0.1155,-0.1177,-0.1186,-0.1229,-0.1232,-0.1239,-0.127,-0.1274,-0.1306,-0.1311,-0.1316,-0.1364,-0.1368,-0.1387,-0.1351,-0.144,-0.1443,-0.1446,-0.1469,-0.1475,-0.148,0,0,0,0,0,-0.113,-0.1146,-0.1155,-0.1163,-0.1202,-0.123,-0.1237,-0.1262,-0.1271,-0.1289,-0.1318,-0.1311,-0.1385,-0.1367,-0.1372,-0.1392,-0.1439,-0.1443,-0.1446,-0.1467,-0.1474,-0.148,0,0,0,0,0,0,-0.1123,-0.1152,-0.1163,-0.1188,-0.1214,-0.1237,-0.1258,-0.1273,-0.1309,-0.1319,-0.1331,-0.1339,-0.1385,-0.1389,-0.1369,-0.143,-0.141,-0.1415,-0.1425,-0.1431,-0.1436,-0.1451,-0.1352,0,0,0,0,0,-0.1127,-0.1149,-0.1175,-0.1197,-0.1211,-0.1237,-0.1256,-0.1274,-0.1303,-0.132,-0.1345,-0.1373,-0.1399,-0.1417,-0.144,-0.1474,-0.148,-0.1491,-0.1496,-0.15,-0.1517,-0.1544,-0.1553,-0.1459,-0.1459,-0.1459,0,0,-0.1132,-0.115,-0.1164,-0.1198,-0.122,-0.1246,-0.125,-0.1284,-0.1317,-0.132,-0.1378,-0.1394,-0.1414,-0.1454,-0.1475,-0.1462,-0.153,-0.1504,-0.1508,-0.1523,-0.1549,-0.1558,-0.1566,-0.1461,-0.1461,-0.146,0,0,-0.1143,-0.1168,-0.1187,-0.121,-0.1246,-0.1265,-0.1279,-0.1317,-0.1347,-0.1396,-0.1408,-0.1448,-0.1484,-0.1508,-0.1521,-0.1572,-0.1557,-0.157,-0.1606,-0.1632,-0.164,-0.1647,-0.1658,-0.1665,-0.157,-0.1571,-0.1571,0,-0.115,-0.1175,-0.1198,-0.1221,-0.1247,-0.1276,-0.1306,-0.1338,-0.139,-0.142,-0.1423,-0.1499,-0.1514,-0.1566,-0.1583,-0.1585,-0.1587,-0.1576,-0.1637,-0.1645,-0.1651,-0.1661,-0.1669,-0.1572,-0.1572,-0.1572,-0.1572,0,-0.1166,-0.1197,-0.1212,-0.1252,-0.1284,-0.1315,-0.1359,-0.1402,-0.1438,-0.1468,-0.1537,-0.1566,-0.1611,-0.1617,-0.1616,-0.1671,-0.1652,-0.1639,-0.1617,-0.1662,-0.167,-0.1678,-0.1574,-0.1574,-0.1573,-0.1573,0,0,-0.1154,-0.1213,-0.122,-0.1248,-0.1306,-0.1332,-0.1395,-0.1456,-0.1501,-0.1553,-0.1613,-0.1664,-0.1678,-0.1696,-0.1701,-0.1726,-0.1769,-0.1702,-0.1703,-0.1706,-0.1813,-0.1678,-0.1673,-0.1757,-0.1758,-0.176,-0.1796,0,-0.1164,-0.1206,-0.1242,-0.1298,-0.1326,-0.1381,-0.1438,-0.1499,-0.1552,-0.1615,-0.166,-0.1711,-0.1707,-0.1727,-0.1757,-0.1767,-0.1793,-0.1761,-0.1777,-0.1778,-0.1646,-0.168,-0.1766,-0.1801,-0.1803,-0.1805,-0.1806,0,-0.1165,-0.1197,-0.1247,-0.1327,-0.1346,-0.1391,-0.1487,-0.1538,-0.1627,-0.1671,-0.1731,-0.1758,-0.1819,-0.18,-0.1858,-0.1832,-0.1835,-0.1838,-0.1839,-0.1712,-0.1658,-0.1751,-0.182,-0.1819,-0.1818,-0.1817,-0.1816,0,-0.1131,-0.1203,-0.1246,-0.127,-0.136,-0.141,-0.1465,-0.1557,-0.1607,-0.1703,-0.1742,-0.1814,-0.1852,-0.1878,-0.1891,-0.1875,-0.1938,-0.1913,-0.18,-0.179,-0.189,-0.1882,-0.1961,-0.1961,-0.1961,-0.1961,-0.1961,0,-0.1116,-0.1154,-0.1237,-0.1257,-0.1325,-0.1396,-0.1473,-0.1542,-0.1634,-0.1684,-0.1763,-0.1805,-0.1873,-0.1909,-0.1913,-0.1876,-0.1958,-0.1816,-0.1794,-0.1898,-0.1892,-0.1895,-0.1887,-0.1962,-0.1962,-0.1961,-0.1961,0,-0.1069,-0.1122,-0.1175,-0.1271,-0.1308,-0.1354,-0.1464,-0.1504,-0.1608,-0.1676,-0.1705,-0.1809,-0.1847,-0.1895,-0.1938,-0.1885,-0.1875,-0.1844,-0.1958,-0.1939,-0.1706,-0.1699,-0.1715,-0.171,-0.1707,-0.1703,-0.1701,0,-0.1046,-0.1065,-0.1163,-0.119,-0.1239,-0.1316,-0.136,-0.1477,-0.1516,-0.1659,-0.1675,-0.1759,-0.181,-0.1771,-0.1829,-0.1824,-0.1804,-0.1786,-0.1744,-0.1706,-0.1683,-0.1682,-0.168,-0.1695,-0.1694,-0.1693,-0.1692,0,-0.0996,-0.1035,-0.1072,-0.1126,-0.1179,-0.1224,-0.13,-0.1324,-0.1448,-0.1559,-0.1602,-0.1625,-0.1666,-0.1689,-0.1696,-0.1693,-0.1787,-0.1747,-0.1754,-0.1715,-0.1682,-0.1663,-0.1666,-0.1679,-0.1681,-0.1682,-0.1683,0,-0.0956,-0.0963,-0.1007,-0.1048,-0.1103,-0.1113,-0.1169,-0.1218,-0.1278,-0.1443,-0.1454,-0.1553,-0.1652,-0.1621,-0.1632,-0.161,-0.1581,-0.1525,-0.1544,-0.1559,-0.1488,-0.1422,-0.1326,0,0,0,0,0,-0.0906,-0.0897,-0.0923,-0.0956,-0.1001,-0.1029,-0.1116,-0.1173,-0.1306,-0.1295,-0.1373,-0.1406,-0.1425,-0.1479,-0.1422,-0.1545,-0.1578,-0.1472,-0.1521,-0.1607,-0.1622,-0.1551,0,0,0,0,0,0,-0.0871,-0.0887,-0.0889,-0.0865,-0.0866,-0.09,-0.0947,-0.1034,-0.1041,-0.1186,-0.1204,-0.1309,-0.1347,-0.1436,-0.1391,-0.1404,-0.1402,-0.1536,-0.1532,-0.1599,-0.1612,-0.1624,-0.1557,0,0,0,0,0]},{"header":{"parameterUnit":"m.s-1","parameterCategory":2,"la1":30.2991,"la2":30.254,"lo1":-89.0895,"lo2":-89.0444,"dy":0.0017,"dx":0.0017,"nx":28,"ny":28,"refTime":"2025-03-20T21:00:00:Z","depth":"4","parameterNumber":3,"parameterNumberName":"V-component_of_CURRENTS"},"data":[0,0,0,0,0,0,0,0,0,0,0,0,0,0,0,0,0,0,0,0,0,0,0,0,0,0,0,0,0,0,0,0,0,0,0,0,0,0,0,0,0,0,0,0,0,0,0,0,0,0,0,0,0,0,0,0,0,0,0.0187,0.0187,0,0.0228,0.0228,0.0229,0.027,0.027,0.0271,0.0272,0.0302,0.0302,0.0302,0,0,0,0,0,0,0,0,0,0,0,0,0,0.0156,0.0156,0.0187,0.0187,0.0188,0.0228,0.0228,0.0229,0.027,0.0271,0.0271,0.0272,0.0302,0.0302,0.0302,0,0,0,0,0,0,0,0,0,0,0,0,0,0.018,0.0156,0.0186,0.0213,0.0215,0.0228,0.0228,0.0229,0.027,0.0271,0.0271,0.0272,0.0301,0.0302,0.0302,0.0289,0,0,0.0304,0.0304,0,0,0,0,0,0,0,0,0.0179,0.0182,0.0208,0.0211,0.0214,0.0244,0.0229,0.0249,0.027,0.0249,0.0272,0.0272,0.0281,0.0283,0.0289,0.0291,0.0292,0.0304,0.0304,0.0304,0.0304,0,0,0,0,0,0,0,0.0177,0.018,0.0203,0.0209,0.0212,0.0227,0.0231,0.0233,0.026,0.0251,0.0254,0.0258,0.0282,0.0289,0.029,0.0293,0.0304,0.0304,0.0305,0.0305,0.0306,0.0306,0,0,0,0,0,0,0.017,0.0178,0.0202,0.0204,0.0198,0.0226,0.0231,0.0234,0.026,0.0265,0.0257,0.026,0.0288,0.029,0.0292,0.0286,0.0304,0.0305,0.0305,0.0306,0.0306,0.0306,0,0,0,0,0,0,0.0169,0.0172,0.02,0.0192,0.0197,0.0226,0.0229,0.0234,0.0247,0.0265,0.027,0.0265,0.0288,0.0291,0.0298,0.0287,0.0305,0.0305,0.0307,0.0306,0.0306,0.027,0,0,0,0,0,0,0.0168,0.0171,0.017,0.0192,0.0197,0.0202,0.0228,0.0235,0.0248,0.0252,0.0273,0.0277,0.0289,0.0297,0.0298,0.0288,0.0306,0.0307,0.0307,0.0306,0.0271,0.0268,0.0266,0,0,0,0,0,0.0167,0.016,0.017,0.0173,0.0195,0.0202,0.0206,0.023,0.0247,0.0246,0.0266,0.0276,0.0295,0.0297,0.0298,0.0289,0.0307,0.0307,0.0306,0.0273,0.0269,0.0266,0,0,0,0,0,0,0.0146,0.0164,0.0175,0.0175,0.0186,0.0209,0.021,0.0228,0.0243,0.0249,0.0272,0.0276,0.0279,0.0288,0.029,0.0289,0.0303,0.0303,0.0277,0.0274,0.0271,0.0265,0.0306,0,0,0,0,0,0.014,0.0142,0.0159,0.0159,0.0163,0.0187,0.0194,0.0209,0.0226,0.0235,0.025,0.0266,0.0276,0.0279,0.0288,0.0283,0.0296,0.0279,0.0277,0.0274,0.0271,0.0283,0.0281,0.0304,0.0304,0.0304,0,0,0.0132,0.0142,0.0144,0.0155,0.0167,0.0162,0.0193,0.02,0.02,0.0233,0.0238,0.0256,0.0273,0.0273,0.0274,0.028,0.0274,0.0273,0.0271,0.0269,0.0282,0.028,0.0278,0.0304,0.0304,0.0304,0,0,0.0112,0.0125,0.0117,0.0121,0.0134,0.0146,0.0147,0.0168,0.0182,0.0188,0.0214,0.0228,0.0239,0.0251,0.0258,0.0244,0.026,0.0246,0.0223,0.0234,0.0232,0.0231,0.0241,0.024,0.0242,0.0242,0.0242,0,0.0101,0.0093,0.0115,0.0105,0.0104,0.0136,0.0122,0.0138,0.0159,0.0164,0.0184,0.0209,0.0228,0.0228,0.0229,0.0237,0.0246,0.0233,0.023,0.0229,0.0228,0.0239,0.0239,0.024,0.024,0.024,0.024,0,0.0074,0.0065,0.006,0.0058,0.0059,0.0052,0.0072,0.0078,0.0101,0.0118,0.013,0.0162,0.0177,0.0186,0.0206,0.0205,0.0214,0.0226,0.0237,0.0223,0.0235,0.0236,0.0237,0.0238,0.0238,0.0239,0,0,0.0054,0.0042,0.0039,0.0023,0.0032,0.0026,0.0026,0.0031,0.0026,0.006,0.0055,0.0092,0.0119,0.0129,0.0156,0.0172,0.018,0.0195,0.0196,0.0201,0.0202,0.0228,0.0231,0.019,0.019,0.019,0.0212,0,0.0024,-0.0009,-0.0004,-0.004,-0.0057,-0.0038,-0.0046,-0.0035,-0.0015,-0.0012,0.0034,0.0042,0.0094,0.01,0.0125,0.0164,0.018,0.0173,0.0218,0.0219,0.0241,0.0233,0.019,0.0213,0.0213,0.0213,0.0214,0,-0.0005,-0.0026,-0.0064,-0.0096,-0.0103,-0.0117,-0.0129,-0.0131,-0.011,-0.0093,-0.0065,-0.0031,0.0004,0.0046,0.0112,0.0104,0.0151,0.0186,0.0187,0.0225,0.0246,0.0231,0.0215,0.0215,0.0215,0.0215,0.0215,0,-0.0033,-0.0071,-0.0105,-0.0115,-0.014,-0.0155,-0.0163,-0.0155,-0.0165,-0.0142,-0.0149,-0.0095,-0.0076,-0.0007,0.0089,0.0093,0.0159,0.0171,0.0238,0.024,0.0226,0.0228,0.0213,0.0213,0.0213,0.0213,0.0213,0,-0.0066,-0.0097,-0.0123,-0.0144,-0.0195,-0.0192,-0.0233,-0.0228,-0.0231,-0.0255,-0.0191,-0.0194,-0.0088,-0.0032,0.0059,0.0157,0.014,0.0233,0.0248,0.021,0.021,0.0227,0.0228,0.0214,0.0214,0.0214,0.0213,0,-0.009,-0.0105,-0.0152,-0.0191,-0.0209,-0.0241,-0.0285,-0.0312,-0.0301,-0.0332,-0.0329,-0.0274,-0.019,-0.0076,0.0033,0.0111,0.0205,0.0245,0.0195,0.0207,0.0282,0.0281,0.0305,0.0306,0.0307,0.0308,0.0308,0,-0.0107,-0.013,-0.0188,-0.0225,-0.0246,-0.0293,-0.0331,-0.0342,-0.0369,-0.038,-0.0399,-0.0333,-0.0277,-0.0107,0.0024,0.0197,0.023,0.0269,0.0282,0.0279,0.0291,0.0289,0.0287,0.031,0.031,0.031,0.031,0,-0.0138,-0.0152,-0.0188,-0.0259,-0.0312,-0.0377,-0.0426,-0.0457,-0.0472,-0.0471,-0.0456,-0.0364,-0.0267,-0.0113,0.0031,0.0155,0.0237,0.0279,0.0278,0.029,0.0286,0.0296,0.0293,0.0314,0.0313,0.0313,0.0313,0,-0.0156,-0.0185,-0.0227,-0.0291,-0.0362,-0.0437,-0.0466,-0.0498,-0.0521,-0.0523,-0.0518,-0.0403,-0.0334,-0.0135,-0.0007,0.0128,0.016,0.0191,0.0195,0.0193,0.0169,0.0148,0.0142,0,0,0,0,0,-0.0172,-0.0201,-0.0261,-0.0333,-0.0404,-0.0446,-0.052,-0.054,-0.0562,-0.0558,-0.0535,-0.0437,-0.0246,-0.0163,-0.0024,0.0017,0.0186,0.0183,0.0225,0.0331,0.0328,0.0323,0,0,0,0,0,0,-0.0185,-0.0229,-0.0256,-0.0349,-0.0405,-0.0488,-0.0539,-0.0562,-0.055,-0.0551,-0.0445,-0.0397,-0.0201,-0.0313,-0.0016,0.0024,0.0068,0.0277,0.028,0.0334,0.033,0.0327,0.0321,0,0,0,0,0]}]]